Year,Month,Day,Hour,Minute,Value (Times are PST for temperature in C)
2013,05,25,00,00,10.00
2013,05,25,00,01,10.00
2013,05,25,00,02,10.00
2013,05,25,00,03,10.00
2013,05,25,00,04,9.90
2013,05,25,00,05,9.90
2013,05,25,00,06,9.90
2013,05,25,00,07,9.90
2013,05,25,00,08,9.90
2013,05,25,00,09,9.90
2013,05,25,00,10,9.90
2013,05,25,00,11,9.90
2013,05,25,00,12,9.90
2013,05,25,00,13,9.90
2013,05,25,00,14,9.90
2013,05,25,00,15,9.90
2013,05,25,00,16,9.90
2013,05,25,00,17,10.00
2013,05,25,00,18,10.00
2013,05,25,00,19,10.00
2013,05,25,00,20,10.10
2013,05,25,00,21,10.10
2013,05,25,00,22,10.10
2013,05,25,00,23,10.10
2013,05,25,00,24,10.10
2013,05,25,00,25,10.10
2013,05,25,00,26,10.00
2013,05,25,00,27,10.00
2013,05,25,00,28,10.00
2013,05,25,00,29,9.90
2013,05,25,00,30,9.90
2013,05,25,00,31,9.90
2013,05,25,00,32,9.90
2013,05,25,00,33,9.90
2013,05,25,00,34,9.90
2013,05,25,00,35,9.90
2013,05,25,00,36,9.90
2013,05,25,00,37,9.90
2013,05,25,00,38,9.80
2013,05,25,00,39,9.80
2013,05,25,00,40,9.80
2013,05,25,00,41,9.70
2013,05,25,00,42,9.70
2013,05,25,00,43,9.70
2013,05,25,00,44,9.60
2013,05,25,00,45,9.60
2013,05,25,00,46,9.60
2013,05,25,00,47,9.60
2013,05,25,00,48,9.60
2013,05,25,00,49,9.60
2013,05,25,00,50,9.50
2013,05,25,00,51,9.50
2013,05,25,00,52,9.50
2013,05,25,00,53,9.50
2013,05,25,00,54,9.50
2013,05,25,00,55,9.50
2013,05,25,00,56,9.40
2013,05,25,00,57,9.40
2013,05,25,00,58,9.40
2013,05,25,00,59,9.40
2013,05,25,01,00,9.30
2013,05,25,01,01,9.30
2013,05,25,01,02,9.30
2013,05,25,01,03,9.20
2013,05,25,01,04,9.20
2013,05,25,01,05,9.20
2013,05,25,01,06,9.20
2013,05,25,01,07,9.10
2013,05,25,01,08,9.10
2013,05,25,01,09,9.10
2013,05,25,01,10,9.10
2013,05,25,01,11,9.00
2013,05,25,01,12,9.00
2013,05,25,01,13,9.00
2013,05,25,01,14,8.90
2013,05,25,01,15,8.90
2013,05,25,01,16,8.90
2013,05,25,01,17,8.80
2013,05,25,01,18,8.80
2013,05,25,01,19,8.80
2013,05,25,01,20,8.80
2013,05,25,01,21,8.80
2013,05,25,01,22,8.80
2013,05,25,01,23,8.70
2013,05,25,01,24,8.70
2013,05,25,01,25,8.70
2013,05,25,01,26,8.60
2013,05,25,01,27,8.60
2013,05,25,01,28,8.60
2013,05,25,01,29,8.60
2013,05,25,01,30,8.50
2013,05,25,01,31,8.50
2013,05,25,01,32,8.40
2013,05,25,01,33,8.40
2013,05,25,01,34,8.30
2013,05,25,01,35,8.20
2013,05,25,01,36,8.20
2013,05,25,01,37,8.10
2013,05,25,01,38,8.00
2013,05,25,01,39,8.00
2013,05,25,01,40,7.90
2013,05,25,01,41,7.80
2013,05,25,01,42,7.80
2013,05,25,01,43,7.80
2013,05,25,01,44,7.70
2013,05,25,01,45,7.70
2013,05,25,01,46,7.70
2013,05,25,01,47,7.60
2013,05,25,01,48,7.60
2013,05,25,01,49,7.60
2013,05,25,01,50,7.50
2013,05,25,01,51,7.50
2013,05,25,01,52,7.50
2013,05,25,01,53,7.40
2013,05,25,01,54,7.40
2013,05,25,01,55,7.40
2013,05,25,01,56,7.40
2013,05,25,01,57,7.40
2013,05,25,01,58,7.30
2013,05,25,01,59,7.30
2013,05,25,02,00,7.30
2013,05,25,02,01,7.30
2013,05,25,02,02,7.30
2013,05,25,02,03,7.30
2013,05,25,02,04,7.30
2013,05,25,02,05,7.30
2013,05,25,02,06,7.30
2013,05,25,02,07,7.30
2013,05,25,02,08,7.40
2013,05,25,02,09,7.40
2013,05,25,02,10,7.40
2013,05,25,02,11,7.40
2013,05,25,02,12,7.30
2013,05,25,02,13,7.30
2013,05,25,02,14,7.40
2013,05,25,02,15,7.40
2013,05,25,02,16,7.40
2013,05,25,02,17,7.40
2013,05,25,02,18,7.40
2013,05,25,02,19,7.40
2013,05,25,02,20,7.40
2013,05,25,02,21,7.40
2013,05,25,02,22,7.40
2013,05,25,02,23,7.50
2013,05,25,02,24,7.50
2013,05,25,02,25,7.60
2013,05,25,02,26,7.60
2013,05,25,02,27,7.60
2013,05,25,02,28,7.70
2013,05,25,02,29,7.70
2013,05,25,02,30,7.70
2013,05,25,02,31,7.70
2013,05,25,02,32,7.80
2013,05,25,02,33,7.80
2013,05,25,02,34,7.80
2013,05,25,02,35,7.80
2013,05,25,02,36,7.90
2013,05,25,02,37,7.90
2013,05,25,02,38,7.90
2013,05,25,02,39,8.00
2013,05,25,02,40,8.00
2013,05,25,02,41,8.10
2013,05,25,02,42,8.10
2013,05,25,02,43,8.10
2013,05,25,02,44,8.20
2013,05,25,02,45,8.20
2013,05,25,02,46,8.20
2013,05,25,02,47,8.20
2013,05,25,02,48,8.20
2013,05,25,02,49,8.20
2013,05,25,02,50,8.20
2013,05,25,02,51,8.20
2013,05,25,02,52,8.20
2013,05,25,02,53,8.20
2013,05,25,02,54,8.20
2013,05,25,02,55,8.20
2013,05,25,02,56,8.20
2013,05,25,02,57,8.20
2013,05,25,02,58,8.20
2013,05,25,02,59,8.20
2013,05,25,03,00,8.20
2013,05,25,03,01,8.20
2013,05,25,03,02,8.20
2013,05,25,03,03,8.30
2013,05,25,03,04,8.30
2013,05,25,03,05,8.30
2013,05,25,03,06,8.40
2013,05,25,03,07,8.40
2013,05,25,03,08,8.40
2013,05,25,03,09,8.40
2013,05,25,03,10,8.40
2013,05,25,03,11,8.40
2013,05,25,03,12,8.30
2013,05,25,03,13,8.30
2013,05,25,03,14,8.30
2013,05,25,03,15,8.30
2013,05,25,03,16,8.20
2013,05,25,03,17,8.20
2013,05,25,03,18,8.20
2013,05,25,03,19,8.10
2013,05,25,03,20,8.10
2013,05,25,03,21,8.00
2013,05,25,03,22,8.00
2013,05,25,03,23,8.00
2013,05,25,03,24,7.90
2013,05,25,03,25,7.90
2013,05,25,03,26,7.90
2013,05,25,03,27,7.90
2013,05,25,03,28,7.90
2013,05,25,03,29,7.80
2013,05,25,03,30,7.80
2013,05,25,03,31,7.80
2013,05,25,03,32,7.80
2013,05,25,03,33,7.70
2013,05,25,03,34,7.70
2013,05,25,03,35,7.70
2013,05,25,03,36,7.70
2013,05,25,03,37,7.70
2013,05,25,03,38,7.60
2013,05,25,03,39,7.60
2013,05,25,03,40,7.60
2013,05,25,03,41,7.50
2013,05,25,03,42,7.50
2013,05,25,03,43,7.40
2013,05,25,03,44,7.40
2013,05,25,03,45,7.30
2013,05,25,03,46,7.30
2013,05,25,03,47,7.30
2013,05,25,03,48,7.20
2013,05,25,03,49,7.20
2013,05,25,03,50,7.10
2013,05,25,03,51,7.10
2013,05,25,03,52,7.10
2013,05,25,03,53,7.00
2013,05,25,03,54,7.00
2013,05,25,03,55,6.90
2013,05,25,03,56,6.90
2013,05,25,03,57,6.90
2013,05,25,03,58,6.80
2013,05,25,03,59,6.80
2013,05,25,04,00,6.80
2013,05,25,04,01,6.80
2013,05,25,04,02,6.80
2013,05,25,04,03,6.70
2013,05,25,04,04,6.70
2013,05,25,04,05,6.70
2013,05,25,04,06,6.70
2013,05,25,04,07,6.70
2013,05,25,04,08,6.70
2013,05,25,04,09,6.70
2013,05,25,04,10,6.70
2013,05,25,04,11,6.70
2013,05,25,04,12,6.80
2013,05,25,04,13,6.80
2013,05,25,04,14,6.80
2013,05,25,04,15,6.80
2013,05,25,04,16,6.80
2013,05,25,04,17,6.80
2013,05,25,04,18,6.80
2013,05,25,04,19,6.90
2013,05,25,04,20,6.90
2013,05,25,04,21,7.00
2013,05,25,04,22,7.00
2013,05,25,04,23,7.10
2013,05,25,04,24,7.10
2013,05,25,04,25,7.10
2013,05,25,04,26,7.10
2013,05,25,04,27,7.10
2013,05,25,04,28,7.10
2013,05,25,04,29,7.20
2013,05,25,04,30,7.20
2013,05,25,04,31,7.20
2013,05,25,04,32,7.20
2013,05,25,04,33,7.10
2013,05,25,04,34,7.10
2013,05,25,04,35,7.10
2013,05,25,04,36,7.10
2013,05,25,04,37,7.00
2013,05,25,04,38,7.00
2013,05,25,04,39,6.90
2013,05,25,04,40,6.90
2013,05,25,04,41,6.80
2013,05,25,04,42,6.80
2013,05,25,04,43,6.80
2013,05,25,04,44,6.70
2013,05,25,04,45,6.70
2013,05,25,04,46,6.70
2013,05,25,04,47,6.70
2013,05,25,04,48,6.70
2013,05,25,04,49,6.60
2013,05,25,04,50,6.60
2013,05,25,04,51,6.60
2013,05,25,04,52,6.60
2013,05,25,04,53,6.50
2013,05,25,04,54,6.50
2013,05,25,04,55,6.50
2013,05,25,04,56,6.40
2013,05,25,04,57,6.40
2013,05,25,04,58,6.40
2013,05,25,04,59,6.40
2013,05,25,05,00,6.40
2013,05,25,05,01,6.40
2013,05,25,05,02,6.30
2013,05,25,05,03,6.30
2013,05,25,05,04,6.30
2013,05,25,05,05,6.30
2013,05,25,05,06,6.30
2013,05,25,05,07,6.30
2013,05,25,05,08,6.30
2013,05,25,05,09,6.30
2013,05,25,05,10,6.30
2013,05,25,05,11,6.30
2013,05,25,05,12,6.20
2013,05,25,05,13,6.20
2013,05,25,05,14,6.20
2013,05,25,05,15,6.20
2013,05,25,05,16,6.20
2013,05,25,05,17,6.20
2013,05,25,05,18,6.20
2013,05,25,05,19,6.10
2013,05,25,05,20,6.10
2013,05,25,05,21,6.10
2013,05,25,05,22,6.10
2013,05,25,05,23,6.10
2013,05,25,05,24,6.10
2013,05,25,05,25,6.10
2013,05,25,05,26,6.10
2013,05,25,05,27,6.10
2013,05,25,05,28,6.00
2013,05,25,05,29,6.00
2013,05,25,05,30,6.00
2013,05,25,05,31,6.00
2013,05,25,05,32,6.00
2013,05,25,05,33,6.00
2013,05,25,05,34,6.00
2013,05,25,05,35,6.00
2013,05,25,05,36,6.00
2013,05,25,05,37,6.00
2013,05,25,05,38,6.00
2013,05,25,05,39,6.00
2013,05,25,05,40,6.00
2013,05,25,05,41,6.00
2013,05,25,05,42,6.00
2013,05,25,05,43,6.00
2013,05,25,05,44,6.00
2013,05,25,05,45,6.00
2013,05,25,05,46,6.10
2013,05,25,05,47,6.10
2013,05,25,05,48,6.10
2013,05,25,05,49,6.10
2013,05,25,05,50,6.10
2013,05,25,05,51,6.10
2013,05,25,05,52,6.10
2013,05,25,05,53,6.20
2013,05,25,05,54,6.20
2013,05,25,05,55,6.20
2013,05,25,05,56,6.20
2013,05,25,05,57,6.30
2013,05,25,05,58,6.30
2013,05,25,05,59,6.30
2013,05,25,06,00,6.40
2013,05,25,06,01,6.40
2013,05,25,06,02,6.40
2013,05,25,06,03,6.40
2013,05,25,06,04,6.50
2013,05,25,06,05,6.50
2013,05,25,06,06,6.60
2013,05,25,06,07,6.60
2013,05,25,06,08,6.60
2013,05,25,06,09,6.60
2013,05,25,06,10,6.60
2013,05,25,06,11,6.70
2013,05,25,06,12,6.70
2013,05,25,06,13,6.70
2013,05,25,06,14,6.80
2013,05,25,06,15,6.80
2013,05,25,06,16,6.80
2013,05,25,06,17,6.90
2013,05,25,06,18,6.90
2013,05,25,06,19,6.90
2013,05,25,06,20,6.90
2013,05,25,06,21,6.90
2013,05,25,06,22,7.00
2013,05,25,06,23,7.00
2013,05,25,06,24,7.10
2013,05,25,06,25,7.10
2013,05,25,06,26,7.10
2013,05,25,06,27,7.10
2013,05,25,06,28,7.10
2013,05,25,06,29,7.20
2013,05,25,06,30,7.20
2013,05,25,06,31,7.20
2013,05,25,06,32,7.20
2013,05,25,06,33,7.30
2013,05,25,06,34,7.30
2013,05,25,06,35,7.30
2013,05,25,06,36,7.40
2013,05,25,06,37,7.40
2013,05,25,06,38,7.40
2013,05,25,06,39,7.50
2013,05,25,06,40,7.50
2013,05,25,06,41,7.50
2013,05,25,06,42,7.60
2013,05,25,06,43,7.60
2013,05,25,06,44,7.60
2013,05,25,06,45,7.70
2013,05,25,06,46,7.70
2013,05,25,06,47,7.70
2013,05,25,06,48,7.70
2013,05,25,06,49,7.80
2013,05,25,06,50,7.80
2013,05,25,06,51,7.80
2013,05,25,06,52,7.80
2013,05,25,06,53,7.80
2013,05,25,06,54,7.90
2013,05,25,06,55,7.90
2013,05,25,06,56,8.00
2013,05,25,06,57,8.00
2013,05,25,06,58,8.10
2013,05,25,06,59,8.10
2013,05,25,07,00,8.20
2013,05,25,07,01,8.20
2013,05,25,07,02,8.30
2013,05,25,07,03,8.30
2013,05,25,07,04,8.30
2013,05,25,07,05,8.40
2013,05,25,07,06,8.40
2013,05,25,07,07,8.50
2013,05,25,07,08,8.50
2013,05,25,07,09,8.50
2013,05,25,07,10,8.60
2013,05,25,07,11,8.60
2013,05,25,07,12,8.60
2013,05,25,07,13,8.60
2013,05,25,07,14,8.70
2013,05,25,07,15,8.70
2013,05,25,07,16,8.70
2013,05,25,07,17,8.70
2013,05,25,07,18,8.80
2013,05,25,07,19,8.80
2013,05,25,07,20,8.80
2013,05,25,07,21,8.80
2013,05,25,07,22,8.90
2013,05,25,07,23,8.90
2013,05,25,07,24,8.90
2013,05,25,07,25,8.90
2013,05,25,07,26,8.90
2013,05,25,07,27,9.00
2013,05,25,07,28,9.00
2013,05,25,07,29,9.00
2013,05,25,07,30,9.10
2013,05,25,07,31,9.10
2013,05,25,07,32,9.10
2013,05,25,07,33,9.20
2013,05,25,07,34,9.20
2013,05,25,07,35,9.20
2013,05,25,07,36,9.30
2013,05,25,07,37,9.30
2013,05,25,07,38,9.30
2013,05,25,07,39,9.40
2013,05,25,07,40,9.40
2013,05,25,07,41,9.40
2013,05,25,07,42,9.40
2013,05,25,07,43,9.40
2013,05,25,07,44,9.50
2013,05,25,07,45,9.50
2013,05,25,07,46,9.60
2013,05,25,07,47,9.60
2013,05,25,07,48,9.60
2013,05,25,07,49,9.60
2013,05,25,07,50,9.70
2013,05,25,07,51,9.70
2013,05,25,07,52,9.70
2013,05,25,07,53,9.70
2013,05,25,07,54,9.70
2013,05,25,07,55,9.70
2013,05,25,07,56,9.80
2013,05,25,07,57,9.80
2013,05,25,07,58,9.80
2013,05,25,07,59,9.80
2013,05,25,08,00,9.80
2013,05,25,08,01,9.90
2013,05,25,08,02,9.90
2013,05,25,08,03,9.90
2013,05,25,08,04,9.90
2013,05,25,08,05,9.90
2013,05,25,08,06,9.90
2013,05,25,08,07,10.00
2013,05,25,08,08,10.00
2013,05,25,08,09,10.00
2013,05,25,08,10,10.10
2013,05,25,08,11,10.10
2013,05,25,08,12,10.10
2013,05,25,08,13,10.10
2013,05,25,08,14,10.10
2013,05,25,08,15,10.10
2013,05,25,08,16,10.20
2013,05,25,08,17,10.20
2013,05,25,08,18,10.20
2013,05,25,08,19,10.20
2013,05,25,08,20,10.20
2013,05,25,08,21,10.20
2013,05,25,08,22,10.20
2013,05,25,08,23,10.20
2013,05,25,08,24,10.20
2013,05,25,08,25,10.20
2013,05,25,08,26,10.20
2013,05,25,08,27,10.20
2013,05,25,08,28,10.20
2013,05,25,08,29,10.20
2013,05,25,08,30,10.30
2013,05,25,08,31,10.30
2013,05,25,08,32,10.30
2013,05,25,08,33,10.30
2013,05,25,08,34,10.30
2013,05,25,08,35,10.30
2013,05,25,08,36,10.30
2013,05,25,08,37,10.30
2013,05,25,08,38,10.30
2013,05,25,08,39,10.30
2013,05,25,08,40,10.30
2013,05,25,08,41,10.30
2013,05,25,08,42,10.30
2013,05,25,08,43,10.30
2013,05,25,08,44,10.30
2013,05,25,08,45,10.40
2013,05,25,08,46,10.30
2013,05,25,08,47,10.30
2013,05,25,08,48,10.30
2013,05,25,08,49,10.30
2013,05,25,08,50,10.30
2013,05,25,08,51,10.30
2013,05,25,08,52,10.20
2013,05,25,08,53,10.20
2013,05,25,08,54,10.20
2013,05,25,08,55,10.20
2013,05,25,08,56,10.20
2013,05,25,08,57,10.20
2013,05,25,08,58,10.20
2013,05,25,08,59,10.20
2013,05,25,09,00,10.20
2013,05,25,09,01,10.20
2013,05,25,09,02,10.20
2013,05,25,09,03,10.20
2013,05,25,09,04,10.20
2013,05,25,09,05,10.20
2013,05,25,09,06,10.20
2013,05,25,09,07,10.20
2013,05,25,09,08,10.20
2013,05,25,09,09,10.10
2013,05,25,09,10,10.10
2013,05,25,09,11,10.10
2013,05,25,09,12,10.10
2013,05,25,09,13,10.10
2013,05,25,09,14,10.10
2013,05,25,09,15,10.10
2013,05,25,09,16,10.10
2013,05,25,09,17,10.10
2013,05,25,09,18,10.10
2013,05,25,09,19,10.10
2013,05,25,09,20,10.10
2013,05,25,09,21,10.00
2013,05,25,09,22,10.00
2013,05,25,09,23,10.00
2013,05,25,09,24,10.00
2013,05,25,09,25,10.00
2013,05,25,09,26,10.00
2013,05,25,09,27,10.10
2013,05,25,09,28,10.10
2013,05,25,09,29,10.10
2013,05,25,09,30,10.10
2013,05,25,09,31,10.20
2013,05,25,09,32,10.20
2013,05,25,09,33,10.30
2013,05,25,09,34,10.30
2013,05,25,09,35,10.40
2013,05,25,09,36,10.50
2013,05,25,09,37,10.50
2013,05,25,09,38,10.60
2013,05,25,09,39,10.60
2013,05,25,09,40,10.70
2013,05,25,09,41,10.80
2013,05,25,09,42,10.90
2013,05,25,09,43,11.00
2013,05,25,09,44,11.20
2013,05,25,09,45,11.30
2013,05,25,09,46,11.50
2013,05,25,09,47,11.50
2013,05,25,09,48,11.60
2013,05,25,09,49,11.70
2013,05,25,09,50,11.60
2013,05,25,09,51,11.70
2013,05,25,09,52,11.70
2013,05,25,09,53,11.70
2013,05,25,09,54,11.70
2013,05,25,09,55,11.80
2013,05,25,09,56,11.80
2013,05,25,09,57,11.80
2013,05,25,09,58,11.80
2013,05,25,09,59,11.80
2013,05,25,10,00,11.90
2013,05,25,10,01,11.90
2013,05,25,10,02,11.90
2013,05,25,10,03,11.90
2013,05,25,10,04,11.90
2013,05,25,10,05,11.90
2013,05,25,10,06,12.00
2013,05,25,10,07,12.10
2013,05,25,10,08,12.20
2013,05,25,10,09,12.30
2013,05,25,10,10,12.30
2013,05,25,10,11,12.40
2013,05,25,10,12,12.40
2013,05,25,10,13,12.40
2013,05,25,10,14,12.30
2013,05,25,10,15,12.30
2013,05,25,10,16,12.40
2013,05,25,10,17,12.40
2013,05,25,10,18,12.40
2013,05,25,10,19,12.40
2013,05,25,10,20,12.40
2013,05,25,10,21,12.40
2013,05,25,10,22,12.30
2013,05,25,10,23,12.30
2013,05,25,10,24,12.30
2013,05,25,10,25,12.20
2013,05,25,10,26,12.20
2013,05,25,10,27,12.10
2013,05,25,10,28,12.10
2013,05,25,10,29,12.10
2013,05,25,10,30,12.20
2013,05,25,10,31,12.10
2013,05,25,10,32,12.10
2013,05,25,10,33,12.20
2013,05,25,10,34,12.20
2013,05,25,10,35,12.30
2013,05,25,10,36,12.30
2013,05,25,10,37,12.30
2013,05,25,10,38,12.20
2013,05,25,10,39,12.20
2013,05,25,10,40,12.10
2013,05,25,10,41,12.10
2013,05,25,10,42,12.10
2013,05,25,10,43,12.20
2013,05,25,10,44,12.20
2013,05,25,10,45,12.20
2013,05,25,10,46,12.20
2013,05,25,10,47,12.20
2013,05,25,10,48,12.20
2013,05,25,10,49,12.20
2013,05,25,10,50,12.20
2013,05,25,10,51,12.30
2013,05,25,10,52,12.30
2013,05,25,10,53,12.30
2013,05,25,10,54,12.40
2013,05,25,10,55,12.40
2013,05,25,10,56,12.50
2013,05,25,10,57,12.50
2013,05,25,10,58,12.60
2013,05,25,10,59,12.70
2013,05,25,11,00,12.80
2013,05,25,11,01,12.80
2013,05,25,11,02,12.80
2013,05,25,11,03,12.80
2013,05,25,11,04,12.80
2013,05,25,11,05,12.80
2013,05,25,11,06,13.00
2013,05,25,11,07,13.10
2013,05,25,11,08,13.30
2013,05,25,11,09,13.30
2013,05,25,11,10,13.30
2013,05,25,11,11,13.20
2013,05,25,11,12,13.10
2013,05,25,11,13,13.00
2013,05,25,11,14,12.90
2013,05,25,11,15,12.80
2013,05,25,11,16,12.90
2013,05,25,11,17,12.90
2013,05,25,11,18,12.90
2013,05,25,11,19,12.90
2013,05,25,11,20,13.00
2013,05,25,11,21,13.10
2013,05,25,11,22,13.20
2013,05,25,11,23,13.30
2013,05,25,11,24,13.30
2013,05,25,11,25,13.30
2013,05,25,11,26,13.10
2013,05,25,11,27,13.00
2013,05,25,11,28,12.90
2013,05,25,11,29,12.90
2013,05,25,11,30,12.90
2013,05,25,11,31,12.80
2013,05,25,11,32,12.80
2013,05,25,11,33,12.80
2013,05,25,11,34,12.80
2013,05,25,11,35,12.80
2013,05,25,11,36,12.90
2013,05,25,11,37,13.00
2013,05,25,11,38,13.00
2013,05,25,11,39,13.00
2013,05,25,11,40,13.10
2013,05,25,11,41,13.10
2013,05,25,11,42,13.10
2013,05,25,11,43,13.10
2013,05,25,11,44,13.10
2013,05,25,11,45,13.10
2013,05,25,11,46,13.10
2013,05,25,11,47,13.10
2013,05,25,11,48,13.10
2013,05,25,11,49,13.00
2013,05,25,11,50,13.00
2013,05,25,11,51,13.00
2013,05,25,11,52,13.00
2013,05,25,11,53,13.00
2013,05,25,11,54,13.00
2013,05,25,11,55,13.00
2013,05,25,11,56,13.10
2013,05,25,11,57,13.10
2013,05,25,11,58,13.10
2013,05,25,11,59,13.10
2013,05,25,12,00,13.10
2013,05,25,12,01,13.00
2013,05,25,12,02,12.90
2013,05,25,12,03,12.90
2013,05,25,12,04,13.00
2013,05,25,12,05,13.10
2013,05,25,12,06,13.10
2013,05,25,12,07,13.20
2013,05,25,12,08,13.20
2013,05,25,12,09,13.30
2013,05,25,12,10,13.40
2013,05,25,12,11,13.40
2013,05,25,12,12,13.40
2013,05,25,12,13,13.40
2013,05,25,12,14,13.40
2013,05,25,12,15,13.40
2013,05,25,12,16,13.40
2013,05,25,12,17,13.40
2013,05,25,12,18,13.40
2013,05,25,12,19,13.50
2013,05,25,12,20,13.60
2013,05,25,12,21,13.60
2013,05,25,12,22,13.60
2013,05,25,12,23,13.60
2013,05,25,12,24,13.60
2013,05,25,12,25,13.60
2013,05,25,12,26,13.70
2013,05,25,12,27,13.80
2013,05,25,12,28,13.90
2013,05,25,12,29,13.90
2013,05,25,12,30,13.90
2013,05,25,12,31,13.80
2013,05,25,12,32,13.80
2013,05,25,12,33,13.70
2013,05,25,12,34,13.60
2013,05,25,12,35,13.50
2013,05,25,12,36,13.60
2013,05,25,12,37,13.60
2013,05,25,12,38,13.60
2013,05,25,12,39,13.50
2013,05,25,12,40,13.50
2013,05,25,12,41,13.40
2013,05,25,12,42,13.40
2013,05,25,12,43,13.50
2013,05,25,12,44,13.50
2013,05,25,12,45,13.50
2013,05,25,12,46,13.40
2013,05,25,12,47,13.40
2013,05,25,12,48,13.40
2013,05,25,12,49,13.40
2013,05,25,12,50,13.40
2013,05,25,12,51,13.30
2013,05,25,12,52,13.30
2013,05,25,12,53,13.30
2013,05,25,12,54,13.20
2013,05,25,12,55,13.10
2013,05,25,12,56,13.00
2013,05,25,12,57,13.00
2013,05,25,12,58,12.90
2013,05,25,12,59,12.90
2013,05,25,13,00,12.90
2013,05,25,13,01,13.00
2013,05,25,13,02,13.00
2013,05,25,13,03,13.00
2013,05,25,13,04,12.90
2013,05,25,13,05,12.90
2013,05,25,13,06,12.80
2013,05,25,13,07,12.80
2013,05,25,13,08,12.90
2013,05,25,13,09,12.90
2013,05,25,13,10,12.90
2013,05,25,13,11,12.90
2013,05,25,13,12,12.90
2013,05,25,13,13,12.90
2013,05,25,13,14,13.00
2013,05,25,13,15,13.10
2013,05,25,13,16,13.10
2013,05,25,13,17,13.10
2013,05,25,13,18,13.10
2013,05,25,13,19,13.20
2013,05,25,13,20,13.20
2013,05,25,13,21,13.20
2013,05,25,13,22,13.20
2013,05,25,13,23,13.20
2013,05,25,13,24,13.20
2013,05,25,13,25,13.30
2013,05,25,13,26,13.30
2013,05,25,13,27,13.40
2013,05,25,13,28,13.30
2013,05,25,13,29,13.30
2013,05,25,13,30,13.30
2013,05,25,13,31,13.20
2013,05,25,13,32,13.20
2013,05,25,13,33,13.20
2013,05,25,13,34,13.20
2013,05,25,13,35,13.10
2013,05,25,13,36,13.10
2013,05,25,13,37,13.20
2013,05,25,13,38,13.20
2013,05,25,13,39,13.30
2013,05,25,13,40,13.30
2013,05,25,13,41,13.20
2013,05,25,13,42,13.20
2013,05,25,13,43,13.10
2013,05,25,13,44,13.10
2013,05,25,13,45,13.00
2013,05,25,13,46,13.00
2013,05,25,13,47,12.90
2013,05,25,13,48,12.80
2013,05,25,13,49,12.70
2013,05,25,13,50,12.60
2013,05,25,13,51,12.60
2013,05,25,13,52,12.50
2013,05,25,13,53,12.50
2013,05,25,13,54,12.50
2013,05,25,13,55,12.40
2013,05,25,13,56,12.40
2013,05,25,13,57,12.40
2013,05,25,13,58,12.30
2013,05,25,13,59,12.30
2013,05,25,14,00,12.30
2013,05,25,14,01,12.30
2013,05,25,14,02,12.30
2013,05,25,14,03,12.30
2013,05,25,14,04,12.40
2013,05,25,14,05,12.40
2013,05,25,14,06,12.40
2013,05,25,14,07,12.50
2013,05,25,14,08,12.50
2013,05,25,14,09,12.50
2013,05,25,14,10,12.50
2013,05,25,14,11,12.50
2013,05,25,14,12,12.60
2013,05,25,14,13,12.70
2013,05,25,14,14,12.70
2013,05,25,14,15,12.70
2013,05,25,14,16,12.80
2013,05,25,14,17,12.80
2013,05,25,14,18,12.80
2013,05,25,14,19,12.90
2013,05,25,14,20,12.90
2013,05,25,14,21,12.90
2013,05,25,14,22,13.00
2013,05,25,14,23,13.10
2013,05,25,14,24,13.20
2013,05,25,14,25,13.20
2013,05,25,14,26,13.20
2013,05,25,14,27,13.20
2013,05,25,14,28,13.30
2013,05,25,14,29,13.20
2013,05,25,14,30,13.30
2013,05,25,14,31,13.30
2013,05,25,14,32,13.30
2013,05,25,14,33,13.30
2013,05,25,14,34,13.30
2013,05,25,14,35,13.30
2013,05,25,14,36,13.30
2013,05,25,14,37,13.40
2013,05,25,14,38,13.50
2013,05,25,14,39,13.60
2013,05,25,14,40,13.70
2013,05,25,14,41,13.70
2013,05,25,14,42,13.70
2013,05,25,14,43,13.70
2013,05,25,14,44,13.90
2013,05,25,14,45,13.90
2013,05,25,14,46,13.90
2013,05,25,14,47,13.90
2013,05,25,14,48,13.90
2013,05,25,14,49,14.00
2013,05,25,14,50,14.00
2013,05,25,14,51,14.10
2013,05,25,14,52,14.10
2013,05,25,14,53,14.20
2013,05,25,14,54,14.40
2013,05,25,14,55,14.50
2013,05,25,14,56,14.70
2013,05,25,14,57,14.80
2013,05,25,14,58,14.80
2013,05,25,14,59,14.80
2013,05,25,15,00,14.80
2013,05,25,15,01,14.70
2013,05,25,15,02,14.70
2013,05,25,15,03,14.70
2013,05,25,15,04,14.70
2013,05,25,15,05,14.80
2013,05,25,15,06,14.70
2013,05,25,15,07,14.70
2013,05,25,15,08,14.60
2013,05,25,15,09,14.40
2013,05,25,15,10,14.30
2013,05,25,15,11,14.20
2013,05,25,15,12,14.10
2013,05,25,15,13,14.00
2013,05,25,15,14,13.90
2013,05,25,15,15,13.90
2013,05,25,15,16,13.80
2013,05,25,15,17,13.70
2013,05,25,15,18,13.70
2013,05,25,15,19,13.60
2013,05,25,15,20,13.60
2013,05,25,15,21,13.60
2013,05,25,15,22,13.60
2013,05,25,15,23,13.60
2013,05,25,15,24,13.50
2013,05,25,15,25,13.50
2013,05,25,15,26,13.50
2013,05,25,15,27,13.50
2013,05,25,15,28,13.40
2013,05,25,15,29,13.40
2013,05,25,15,30,13.40
2013,05,25,15,31,13.40
2013,05,25,15,32,13.40
2013,05,25,15,33,13.40
2013,05,25,15,34,13.40
2013,05,25,15,35,13.50
2013,05,25,15,36,13.60
2013,05,25,15,37,13.60
2013,05,25,15,38,13.70
2013,05,25,15,39,13.70
2013,05,25,15,40,13.70
2013,05,25,15,41,13.80
2013,05,25,15,42,13.80
2013,05,25,15,43,13.80
2013,05,25,15,44,13.80
2013,05,25,15,45,13.80
2013,05,25,15,46,13.80
2013,05,25,15,47,13.70
2013,05,25,15,48,13.70
2013,05,25,15,49,13.70
2013,05,25,15,50,13.60
2013,05,25,15,51,13.60
2013,05,25,15,52,13.50
2013,05,25,15,53,13.50
2013,05,25,15,54,13.40
2013,05,25,15,55,13.50
2013,05,25,15,56,13.50
2013,05,25,15,57,13.50
2013,05,25,15,58,13.50
2013,05,25,15,59,13.50
2013,05,25,16,00,13.50
2013,05,25,16,01,13.50
2013,05,25,16,02,13.50
2013,05,25,16,03,13.50
2013,05,25,16,04,13.40
2013,05,25,16,05,13.40
2013,05,25,16,06,13.40
2013,05,25,16,07,13.40
2013,05,25,16,08,13.30
2013,05,25,16,09,13.30
2013,05,25,16,10,13.30
2013,05,25,16,11,13.40
2013,05,25,16,12,13.40
2013,05,25,16,13,13.40
2013,05,25,16,14,13.40
2013,05,25,16,15,13.40
2013,05,25,16,16,13.50
2013,05,25,16,17,13.50
2013,05,25,16,18,13.50
2013,05,25,16,19,13.50
2013,05,25,16,20,13.60
2013,05,25,16,21,13.60
2013,05,25,16,22,13.60
2013,05,25,16,23,13.70
2013,05,25,16,24,13.70
2013,05,25,16,25,13.80
2013,05,25,16,26,13.80
2013,05,25,16,27,13.80
2013,05,25,16,28,13.80
2013,05,25,16,29,13.80
2013,05,25,16,30,13.90
2013,05,25,16,31,13.90
2013,05,25,16,32,14.00
2013,05,25,16,33,14.00
2013,05,25,16,34,14.00
2013,05,25,16,35,14.10
2013,05,25,16,36,14.10
2013,05,25,16,37,14.10
2013,05,25,16,38,14.20
2013,05,25,16,39,14.20
2013,05,25,16,40,14.20
2013,05,25,16,41,14.30
2013,05,25,16,42,14.30
2013,05,25,16,43,14.30
2013,05,25,16,44,14.30
2013,05,25,16,45,14.30
2013,05,25,16,46,14.30
2013,05,25,16,47,14.30
2013,05,25,16,48,14.30
2013,05,25,16,49,14.30
2013,05,25,16,50,14.40
2013,05,25,16,51,14.50
2013,05,25,16,52,14.60
2013,05,25,16,53,14.70
2013,05,25,16,54,14.80
2013,05,25,16,55,14.90
2013,05,25,16,56,14.90
2013,05,25,16,57,14.90
2013,05,25,16,58,14.80
2013,05,25,16,59,14.80
2013,05,25,17,00,14.80
2013,05,25,17,01,14.80
2013,05,25,17,02,14.80
2013,05,25,17,03,14.70
2013,05,25,17,04,14.70
2013,05,25,17,05,14.60
2013,05,25,17,06,14.60
2013,05,25,17,07,14.50
2013,05,25,17,08,14.50
2013,05,25,17,09,14.60
2013,05,25,17,10,14.70
2013,05,25,17,11,14.70
2013,05,25,17,12,14.70
2013,05,25,17,13,14.70
2013,05,25,17,14,14.70
2013,05,25,17,15,14.70
2013,05,25,17,16,14.60
2013,05,25,17,17,14.60
2013,05,25,17,18,14.60
2013,05,25,17,19,14.60
2013,05,25,17,20,14.60
2013,05,25,17,21,14.60
2013,05,25,17,22,14.60
2013,05,25,17,23,14.70
2013,05,25,17,24,14.70
2013,05,25,17,25,14.80
2013,05,25,17,26,14.80
2013,05,25,17,27,14.80
2013,05,25,17,28,14.70
2013,05,25,17,29,14.60
2013,05,25,17,30,14.50
2013,05,25,17,31,14.40
2013,05,25,17,32,14.30
2013,05,25,17,33,14.20
2013,05,25,17,34,14.20
2013,05,25,17,35,14.10
2013,05,25,17,36,14.00
2013,05,25,17,37,13.90
2013,05,25,17,38,13.90
2013,05,25,17,39,13.80